Weather History for KEFT - September, 2012

Change the Weather History Date:

Thursday, September 27, 2012

  Actual Average Record
Temperature  
Mean Temperature 53 °F -  
Max Temperature 64 °F 0 °F 82 °F (2013)
Min Temperature 42 °F - 42 °F (2001)
Degree Days  
Heating Degree Days 12    
Growing Degree Days 3 (Base 50)    
Moisture  
Dew Point 39 °F    
Average Humidity 62    
Maximum Humidity 93    
Minimum Humidity 37    
Precipitation  
Precipitation 0.00 in - - ()
Sea Level Pressure  
Sea Level Pressure 30.21 in    
Wind  
Wind Speed 7 mph (NE)    
Max Wind Speed 15 mph    
Max Gust Speed 23 mph    
Visibility 10 miles    
Events      
Averages and records for this station are not official NWS values.
T = Trace of Precipitation, MM = Missing Value Source: NWS Daily Summary

Daily Weather History Graph

Daily Weather History Graph

Search for Another Location

Airport or City:

Trip Planner

Search our weather history database for the weather conditions in past years. The results will help you decide how hot, cold, wet, or windy it might be!

Date:

Astronomy

Sep. 27, 2012 Rise Set
Actual Time 6:51 AM CDT 6:45 PM CDT
Civil Twilight 6:23 AM CDT 7:13 PM CDT
Nautical Twilight 5:50 AM CDT 7:46 PM CDT
Astronomical Twilight 5:17 AM CDT 8:19 PM CDT
Moon 5:19 PM CDT (9/27) 4:18 AM CDT (9/27)
Length of Visible Light 12h 50m
Length of Day
11h 54m
Waxing Gibbous, 94% of the Moon is Illuminated
Sep 27
Waxing Gibbous
Sep 29
Full
Oct 8
Last Quarter
Oct 15
New
Oct 21
First Quarter

Hourly Weather History & Observations

Time (CDT) Temp. Windchill Dew Point Humidity Pressure Visibility Wind Dir Wind Speed Gust Speed Precip Events Conditions
12:15 AM 48.2 °F - 39.2 °F 71% 30.19 in 10.0 mi ENE 6.9 mph - N/A   Clear
12:35 AM 48.2 °F - 37.4 °F 66% 30.19 in 10.0 mi ENE 5.8 mph - N/A   Clear
12:55 AM 46.4 °F 42.9 °F 37.4 °F 71% 30.19 in 10.0 mi ENE 6.9 mph - N/A   Clear
1:15 AM 46.4 °F 42.9 °F 37.4 °F 71% 30.19 in 10.0 mi ENE 6.9 mph - N/A   Clear
1:17 AM 46.4 °F 42.9 °F 39.2 °F 76% 30.19 in 10.0 mi ENE 6.9 mph - N/A   Clear
1:35 AM 46.4 °F 42.9 °F 37.4 °F 71% 30.19 in 10.0 mi NE 6.9 mph - N/A   Clear
1:55 AM 46.4 °F 42.9 °F 39.2 °F 76% 30.20 in 10.0 mi ENE 6.9 mph - N/A   Clear
2:15 AM 46.4 °F 42.9 °F 37.4 °F 71% 30.19 in 10.0 mi ENE 6.9 mph - N/A   Clear
2:35 AM 46.4 °F 42.4 °F 37.4 °F 71% 30.19 in 10.0 mi NE 8.1 mph - N/A   Clear
2:55 AM 44.6 °F 41.4 °F 37.4 °F 76% 30.19 in 10.0 mi ENE 5.8 mph - N/A   Clear
3:15 AM 44.6 °F 42.2 °F 37.4 °F 76% 30.20 in 10.0 mi ENE 4.6 mph - N/A   Clear
3:35 AM 44.6 °F 43.1 °F 37.4 °F 76% 30.20 in 10.0 mi ENE 3.5 mph - N/A   Clear
4:15 AM 44.6 °F - 37.4 °F 76% 30.21 in 10.0 mi Calm Calm - N/A   Clear
4:35 AM 44.6 °F - 37.4 °F 76% 30.22 in 10.0 mi Calm Calm - N/A   Clear
4:55 AM 44.6 °F 43.1 °F 37.4 °F 76% 30.22 in 10.0 mi North 3.5 mph - N/A   Clear
5:15 AM 44.6 °F 42.2 °F 37.4 °F 76% 30.22 in 10.0 mi North 4.6 mph - N/A   Clear
5:35 AM 44.6 °F 41.4 °F 37.4 °F 76% 30.22 in 10.0 mi North 5.8 mph - N/A   Clear
5:55 AM 42.8 °F 39.3 °F 41.0 °F 93% 30.22 in 10.0 mi North 5.8 mph - N/A   Clear
6:15 AM 42.8 °F 40.1 °F 39.2 °F 87% 30.23 in 10.0 mi North 4.6 mph - N/A   Clear
6:35 AM 42.8 °F 40.1 °F 39.2 °F 87% 30.23 in 10.0 mi North 4.6 mph - N/A   Clear
6:55 AM 42.8 °F 40.1 °F 39.2 °F 87% 30.25 in 10.0 mi North 4.6 mph - N/A   Clear
7:15 AM 42.8 °F 40.1 °F 39.2 °F 87% 30.25 in 10.0 mi North 4.6 mph - N/A   Clear
7:35 AM 44.6 °F 40.7 °F 37.4 °F 76% 30.26 in 10.0 mi North 6.9 mph - N/A   Clear
7:55 AM 44.6 °F 41.4 °F 37.4 °F 76% 30.26 in 10.0 mi North 5.8 mph - N/A   Clear
8:15 AM 46.4 °F 43.5 °F 41.0 °F 81% 30.26 in 10.0 mi North 5.8 mph - N/A   Clear
8:35 AM 50.0 °F - 41.0 °F 71% 30.25 in 10.0 mi North 8.1 mph - N/A   Clear
8:55 AM 51.8 °F - 41.0 °F 67% 30.25 in 10.0 mi North 5.8 mph - N/A   Clear
9:15 AM 51.8 °F - 42.8 °F 71% 30.25 in 10.0 mi North 8.1 mph - N/A   Clear
9:35 AM 55.4 °F - 42.8 °F 63% 30.25 in 10.0 mi NNE 9.2 mph - N/A   Clear
9:55 AM 55.4 °F - 42.8 °F 63% 30.26 in 10.0 mi NNE 10.4 mph - N/A   Clear
10:15 AM 57.2 °F - 41.0 °F 55% 30.26 in 10.0 mi NNE 10.4 mph - N/A   Clear
10:35 AM 59.0 °F - 41.0 °F 51% 30.26 in 10.0 mi NE 10.4 mph - N/A   Clear
10:55 AM 59.0 °F - 41.0 °F 51% 30.25 in 10.0 mi NNE 11.5 mph 17.3 mph N/A   Scattered Clouds
11:15 AM 60.8 °F - 37.4 °F 42% 30.24 in 10.0 mi NE 12.7 mph - N/A   Scattered Clouds
11:35 AM 60.8 °F - 37.4 °F 42% 30.23 in 10.0 mi NE 12.7 mph 23.0 mph N/A   Scattered Clouds
11:55 AM 60.8 °F - 37.4 °F 42% 30.23 in 10.0 mi NE 10.4 mph - N/A   Clear
12:15 PM 60.8 °F - 37.4 °F 42% 30.22 in 10.0 mi NE 12.7 mph 19.6 mph N/A   Scattered Clouds
12:35 PM 62.6 °F - 37.4 °F 39% 30.22 in 10.0 mi NE 11.5 mph 17.3 mph N/A   Scattered Clouds
12:55 PM 62.6 °F - 37.4 °F 39% 30.22 in 10.0 mi NNE 12.7 mph 18.4 mph N/A   Scattered Clouds
1:15 PM 64.4 °F - 37.4 °F 37% 30.21 in 10.0 mi East 8.1 mph - N/A   Scattered Clouds
1:35 PM 62.6 °F - 37.4 °F 39% 30.20 in 10.0 mi NE 9.2 mph - N/A   Scattered Clouds
1:55 PM 62.6 °F - 41.0 °F 45% 30.20 in 10.0 mi NE 11.5 mph 18.4 mph N/A   Mostly Cloudy
2:15 PM 64.4 °F - 37.4 °F 37% 30.19 in 10.0 mi NNE 5.8 mph - N/A   Scattered Clouds
2:35 PM 62.6 °F - 41.0 °F 45% 30.20 in 10.0 mi East 8.1 mph - N/A   Clear
2:55 PM 62.6 °F - 37.4 °F 39% 30.20 in 10.0 mi ENE 5.8 mph 9.2 mph N/A   Scattered Clouds
3:15 PM 62.6 °F - 37.4 °F 39% 30.19 in 10.0 mi NNE 10.4 mph 16.1 mph N/A   Mostly Cloudy
3:35 PM 62.6 °F - 37.4 °F 39% 30.19 in 10.0 mi NNE 6.9 mph - N/A   Scattered Clouds
3:55 PM 64.4 °F - 41.0 °F 42% 30.19 in 10.0 mi NE 12.7 mph - N/A   Mostly Cloudy
4:15 PM 62.6 °F - 39.2 °F 42% 30.19 in 10.0 mi ENE 4.6 mph - N/A   Scattered Clouds
4:35 PM 64.4 °F - 39.2 °F 40% 30.18 in 10.0 mi NNE 15.0 mph 18.4 mph N/A   Mostly Cloudy
4:55 PM 60.8 °F - 41.0 °F 48% 30.19 in 10.0 mi NE 4.6 mph - N/A   Mostly Cloudy
5:35 PM 60.8 °F - 39.2 °F 45% 30.17 in 10.0 mi NNE 10.4 mph - N/A   Clear
5:55 PM 60.8 °F - 39.2 °F 45% 30.18 in 10.0 mi NE 6.9 mph - N/A   Clear
6:15 PM 59.0 °F - 41.0 °F 51% 30.18 in 10.0 mi NE 6.9 mph - N/A   Clear
6:35 PM 57.2 °F - 41.0 °F 55% 30.19 in 10.0 mi ENE 4.6 mph - N/A   Clear
6:55 PM 55.4 °F - 41.0 °F 58% 30.19 in 10.0 mi ENE 6.9 mph - N/A   Clear
7:15 PM 55.4 °F - 41.0 °F 58% 30.19 in 10.0 mi ENE 5.8 mph - N/A   Clear
7:35 PM 53.6 °F - 41.0 °F 62% 30.19 in 10.0 mi ENE 3.5 mph - N/A   Clear
7:55 PM 53.6 °F - 41.0 °F 62% 30.19 in 10.0 mi ENE 3.5 mph - N/A   Clear
8:15 PM 53.6 °F - 41.0 °F 62% 30.20 in 10.0 mi Calm Calm - N/A   Clear
8:35 PM 53.6 °F - 41.0 °F 62% 30.20 in 10.0 mi East 3.5 mph - N/A   Clear
8:55 PM 53.6 °F - 41.0 °F 62% 30.20 in 10.0 mi East 3.5 mph - N/A   Clear
9:15 PM 53.6 °F - 41.0 °F 62% 30.21 in 10.0 mi East 4.6 mph - N/A   Clear
9:35 PM 53.6 °F - 41.0 °F 62% 30.21 in 10.0 mi ESE 4.6 mph - N/A   Clear
9:55 PM 51.8 °F - 41.0 °F 67% 30.21 in 10.0 mi East 4.6 mph - N/A   Clear
10:15 PM 51.8 °F - 41.0 °F 67% 30.20 in 10.0 mi East 3.5 mph - N/A   Clear
10:35 PM 51.8 °F - 41.0 °F 67% 30.20 in 10.0 mi East 3.5 mph - N/A   Clear
10:55 PM 51.8 °F - 41.0 °F 67% 30.20 in 10.0 mi Calm Calm - N/A   Clear
11:15 PM 50.0 °F - 41.0 °F 71% 30.20 in 10.0 mi ENE 3.5 mph - N/A   Clear
11:35 PM 50.0 °F - 41.0 °F 71% 30.19 in 10.0 mi Calm Calm - N/A   Clear